| time (UTC) | temp C | wind direction | speed KPH | gust KPH | rain 1hr cm | rain 24hr cm | rain mn cm | humidity % | barometer mb |
| 20260506103003 | 10 | 17 | 6.4 | 19.3 | 0.05 | 0.20 | 0.20 | 91 | 1008.6 |
| 20260506102505 | 10 | 21 | 6.4 | 19.3 | 0.03 | 0.18 | 0.18 | 92 | 1008.5 |
| 20260506102008 | 10 | 16 | 6.4 | 19.3 | 0.03 | 0.18 | 0.18 | 92 | 1008.5 |
| 20260506101503 | 10 | 24 | 6.4 | 16.1 | 0.03 | 0.18 | 0.18 | 92 | 1008.5 |
| 20260506101004 | 10 | 39 | 6.4 | 20.9 | 0.03 | 0.18 | 0.18 | 92 | 1008.5 |
| 20260506100507 | 10 | 32 | 8.0 | 20.9 | 0.03 | 0.18 | 0.18 | 92 | 1008.4 |
| 20260506100006 | 10 | 30 | 6.4 | 19.3 | 0.03 | 0.18 | 0.18 | 92 | 1008.3 |
| 20260506095505 | 10 | 31 | 6.4 | 19.3 | 0.03 | 0.18 | 0.18 | 92 | 1008.3 |
| 20260506095003 | 10 | 23 | 4.8 | 19.3 | 0.03 | 0.18 | 0.18 | 92 | 1008.3 |
| 20260506094503 | 10 | 22 | 3.2 | 12.9 | 0.03 | 0.18 | 0.18 | 92 | 1008.4 |
| 20260506094005 | 10 | 23 | 4.8 | 14.5 | 0.00 | 0.15 | 0.15 | 92 | 1008.3 |
| 20260506093504 | 9 | 27 | 6.4 | 19.3 | 0.00 | 0.15 | 0.15 | 92 | 1008.3 |
| 20260506093005 | 9 | 29 | 8.0 | 19.3 | 0.00 | 0.15 | 0.15 | 92 | 1008.3 |
| 20260506092505 | 9 | 30 | 8.0 | 22.5 | 0.00 | 0.15 | 0.15 | 92 | 1008.3 |
| 20260506092011 | 9 | 29 | 8.0 | 22.5 | 0.00 | 0.15 | 0.15 | 92 | 1008.3 |
| 20260506091506 | 9 | 21 | 6.4 | 17.7 | 0.03 | 0.15 | 0.15 | 92 | 1008.2 |
| 20260506091005 | 9 | 27 | 6.4 | 19.3 | 0.03 | 0.15 | 0.15 | 92 | 1008.2 |
| 20260506090503 | 9 | 35 | 8.0 | 24.1 | 0.03 | 0.15 | 0.15 | 92 | 1008.1 |
| 20260506090003 | 9 | 37 | 6.4 | 24.1 | 0.03 | 0.15 | 0.15 | 93 | 1008.1 |
| 20260506085718 | 9 | 35 | 8.0 | 24.1 | 0.03 | 0.15 | 0.15 | 92 | 1008.1 |
| 20260506085003 | 9 | 24 | 8.0 | 20.9 | 0.03 | 0.15 | 0.15 | 93 | 1008.1 |
| 20260506084504 | 9 | 28 | 6.4 | 20.9 | 0.03 | 0.15 | 0.15 | 93 | 1008.0 |
| 20260506084005 | 9 | 22 | 4.8 | 14.5 | 0.03 | 0.15 | 0.15 | 93 | 1008.1 |
| 20260506083506 | 9 | 17 | 3.2 | 14.5 | 0.03 | 0.15 | 0.15 | 94 | 1008.1 |
| 20260506083003 | 9 | 32 | 4.8 | 12.9 | 0.03 | 0.15 | 0.15 | 94 | 1008.1 |
| 20260506082720 | 8 | 23 | 4.8 | 14.5 | 0.03 | 0.15 | 0.15 | 94 | 1008.0 |
| 20260506082003 | 8 | 15 | 6.4 | 17.7 | 0.03 | 0.15 | 0.15 | 94 | 1008.1 |
| 20260506081503 | 8 | 27 | 6.4 | 17.7 | 0.00 | 0.15 | 0.15 | 93 | 1008.1 |
| 20260506081006 | 8 | 28 | 4.8 | 16.1 | 0.00 | 0.15 | 0.15 | 94 | 1008.0 |
| 20260506080720 | 8 | 28 | 6.4 | 16.1 | 0.00 | 0.15 | 0.15 | 94 | 1008.1 |
| 20260506073504 | 8 | 32 | 6.4 | 16.1 | 0.03 | 0.15 | 0.15 | 94 | 1007.8 |
| 20260506073003 | 8 | 37 | 4.8 | 16.1 | 0.03 | 0.18 | 0.15 | 95 | 1007.8 |
| 20260506072504 | 8 | 37 | 4.8 | 14.5 | 0.05 | 0.18 | 0.15 | 95 | 1007.8 |
| 20260506072003 | 8 | 33 | 4.8 | 17.7 | 0.05 | 0.18 | 0.15 | 95 | 1007.8 |
| 20260506071719 | 8 | 37 | 4.8 | 17.7 | 0.05 | 0.18 | 0.15 | 95 | 1007.8 |
| 20260506071005 | 8 | 37 | 4.8 | 12.9 | 0.05 | 0.20 | 0.15 | 95 | 1007.8 |
| 20260506070504 | 8 | 31 | 4.8 | 14.5 | 0.05 | 0.20 | 0.15 | 94 | 1007.8 |
| 20260506062005 | 8 | 32 | 6.4 | 17.7 | 0.03 | 0.18 | 0.10 | 94 | 1007.5 |
| 20260506061504 | 9 | 22 | 4.8 | 17.7 | 0.00 | 0.15 | 0.08 | 95 | 1007.4 |
| 20260506061222 | 9 | 19 | 4.8 | 12.9 | 0.00 | 0.15 | 0.08 | 95 | 1007.4 |
| 20260506060717 | 9 | 14 | 4.8 | 12.9 | 0.00 | 0.15 | 0.08 | 95 | 1007.4 |
| 20260506051003 | 8 | 22 | 4.8 | 12.9 | 0.00 | 0.15 | 0.08 | 95 | 1007.2 |
| 20260506050504 | 8 | 13 | 4.8 | 12.9 | 0.00 | 0.15 | 0.08 | 95 | 1007.1 |
| 20260506045003 | 8 | 23 | 3.2 | 8.0 | 0.00 | 0.15 | 0.08 | 95 | 1007.2 |
| 20260506044505 | 8 | 15 | 3.2 | 11.3 | 0.00 | 0.15 | 0.08 | 95 | 1007.3 |
| 20260506044003 | 8 | 10 | 1.6 | 11.3 | 0.00 | 0.15 | 0.08 | 95 | 1007.3 |
| 20260506043503 | 8 | 358 | 1.6 | 9.7 | 0.00 | 0.15 | 0.08 | 95 | 1007.3 |
| 20260506043005 | 8 | 359 | 3.2 | 9.7 | 0.00 | 0.15 | 0.08 | 95 | 1007.2 |
| 20260506042505 | 8 | 9 | 3.2 | 11.3 | 0.00 | 0.15 | 0.08 | 95 | 1007.2 |
| 20260506042221 | 8 | 14 | 3.2 | 11.3 | 0.00 | 0.15 | 0.08 | 95 | 1007.2 |
| 20260506041505 | 8 | 37 | 3.2 | 8.0 | 0.00 | 0.15 | 0.08 | 95 | 1007.2 |
| 20260506041003 | 8 | 26 | 3.2 | 8.0 | 0.00 | 0.15 | 0.08 | 95 | 1007.3 |
| 20260506040505 | 8 | 20 | 4.8 | 8.0 | 0.00 | 0.15 | 0.08 | 95 | 1007.3 |
| 20260506040003 | 8 | 10 | 3.2 | 12.9 | 0.00 | 0.15 | 0.08 | 95 | 1007.3 |
| 20260506035504 | 8 | 8 | 3.2 | 12.9 | 0.00 | 0.15 | 0.08 | 95 | 1007.3 |
| 20260506035003 | 8 | 15 | 1.6 | 6.4 | 0.00 | 0.15 | 0.08 | 95 | 1007.3 |
| 20260506034504 | 8 | 17 | 1.6 | 8.0 | 0.00 | 0.15 | 0.08 | 95 | 1007.4 |
| 20260506034003 | 8 | 23 | 1.6 | 8.0 | 0.00 | 0.15 | 0.08 | 95 | 1007.4 |
| 20260506033506 | 8 | 13 | 3.2 | 9.7 | 0.00 | 0.15 | 0.08 | 95 | 1007.5 |
| 20260506033003 | 8 | 9 | 3.2 | 9.7 | 0.00 | 0.15 | 0.08 | 95 | 1007.5 |
| 20260506032718 | 8 | 6 | 3.2 | 9.7 | 0.00 | 0.15 | 0.08 | 95 | 1007.5 |
| 20260506032004 | 8 | 352 | 3.2 | 9.7 | 0.03 | 0.15 | 0.08 | 95 | 1007.5 |
| 20260506031503 | 8 | 360 | 3.2 | 9.7 | 0.03 | 0.15 | 0.08 | 95 | 1007.6 |
| 20260506031007 | 8 | 5 | 3.2 | 8.0 | 0.03 | 0.15 | 0.08 | 95 | 1007.6 |
| 20260506030503 | 8 | 352 | 4.8 | 9.7 | 0.03 | 0.15 | 0.08 | 95 | 1007.6 |
| 20260506030005 | 8 | 350 | 4.8 | 9.7 | 0.03 | 0.15 | 0.08 | 95 | 1007.6 |
| 20260506025506 | 8 | 357 | 3.2 | 8.0 | 0.03 | 0.18 | 0.08 | 95 | 1007.7 |
| 20260506025005 | 8 | 354 | 3.2 | 9.7 | 0.05 | 0.18 | 0.08 | 95 | 1007.7 |
| 20260506024503 | 8 | 357 | 1.6 | 9.7 | 0.05 | 0.18 | 0.08 | 95 | 1007.7 |
| 20260506024005 | 8 | 5 | 3.2 | 12.9 | 0.05 | 0.18 | 0.08 | 95 | 1007.7 |
| 20260506023504 | 8 | 2 | 3.2 | 12.9 | 0.05 | 0.18 | 0.08 | 95 | 1007.7 |
| 20260506023004 | 8 | 360 | 3.2 | 12.9 | 0.05 | 0.18 | 0.08 | 95 | 1007.8 |
| 20260506022503 | 8 | 6 | 3.2 | 12.9 | 0.03 | 0.15 | 0.05 | 95 | 1007.8 |
| 20260506022003 | 8 | 7 | 4.8 | 14.5 | 0.03 | 0.18 | 0.05 | 95 | 1007.9 |
| 20260506021503 | 8 | 360 | 4.8 | 14.5 | 0.03 | 0.18 | 0.05 | 95 | 1007.9 |
| 20260506021005 | 8 | 356 | 3.2 | 14.5 | 0.05 | 0.18 | 0.05 | 95 | 1008.0 |
| 20260506020505 | 8 | 10 | 4.8 | 14.5 | 0.05 | 0.18 | 0.05 | 94 | 1008.0 |
| 20260506020003 | 8 | 16 | 4.8 | 12.9 | 0.05 | 0.18 | 0.05 | 94 | 1008.1 |
| 20260506015505 | 8 | 8 | 4.8 | 14.5 | 0.05 | 0.18 | 0.05 | 94 | 1008.0 |
| 20260506015006 | 8 | 6 | 4.8 | 14.5 | 0.05 | 0.15 | 0.05 | 94 | 1008.1 |
| 20260506014717 | 8 | 11 | 4.8 | 12.9 | 0.05 | 0.15 | 0.05 | 94 | 1008.0 |
| 20260506014005 | 8 | 30 | 4.8 | 12.9 | 0.05 | 0.18 | 0.05 | 94 | 1008.1 |
| 20260506013503 | 9 | 26 | 4.8 | 16.1 | 0.05 | 0.20 | 0.05 | 94 | 1008.1 |
| 20260506013003 | 9 | 25 | 4.8 | 16.1 | 0.05 | 0.25 | 0.05 | 94 | 1008.2 |
| 20260506012504 | 9 | 26 | 4.8 | 12.9 | 0.05 | 0.33 | 0.05 | 94 | 1008.2 |
| 20260506012006 | 8 | 22 | 6.4 | 17.7 | 0.05 | 0.38 | 0.05 | 94 | 1008.2 |
| 20260506011504 | 8 | 23 | 6.4 | 17.7 | 0.05 | 0.41 | 0.05 | 94 | 1008.2 |
| 20260506011005 | 8 | 21 | 4.8 | 14.5 | 0.03 | 0.41 | 0.03 | 94 | 1008.3 |
| 20260506010503 | 8 | 18 | 4.8 | 16.1 | 0.03 | 0.43 | 0.03 | 94 | 1008.2 |
| 20260506010005 | 8 | 28 | 4.8 | 16.1 | 0.00 | 0.43 | 0.00 | 94 | 1008.3 |
| 20260506005717 | 8 | 31 | 4.8 | 17.7 | 0.00 | 0.43 | 0.00 | 94 | 1008.3 |
| 20260506005004 | 8 | 29 | 6.4 | 17.7 | 0.00 | 0.51 | 0.00 | 94 | 1008.3 |
| 20260506004717 | 8 | 30 | 4.8 | 14.5 | 0.00 | 0.51 | 0.00 | 94 | 1008.4 |
| 20260506004005 | 8 | 25 | 4.8 | 20.9 | 0.00 | 0.61 | 0.00 | 94 | 1008.4 |
| 20260506003503 | 8 | 32 | 4.8 | 16.1 | 0.00 | 0.64 | 0.00 | 94 | 1008.5 |
| 20260506003004 | 8 | 27 | 4.8 | 16.1 | 0.00 | 0.71 | 0.00 | 94 | 1008.5 |
| 20260506002719 | 8 | 25 | 4.8 | 16.1 | 0.00 | 0.71 | 0.00 | 94 | 1008.5 |
| 20260506002003 | 8 | 28 | 4.8 | 12.9 | 0.00 | 0.76 | 0.00 | 94 | 1008.5 |
| 20260506001505 | 8 | 18 | 4.8 | 14.5 | 0.00 | 0.79 | 0.00 | 94 | 1008.5 |
| 20260506001003 | 8 | 10 | 4.8 | 14.5 | 0.00 | 0.84 | 0.00 | 94 | 1008.6 |
| 20260506000507 | 8 | 26 | 4.8 | 14.5 | 0.00 | 0.89 | 0.00 | 94 | 1008.6 |
| 20260506000003 | 8 | 27 | 4.8 | 14.5 | 0.00 | 0.89 | 0.00 | 94 | 1008.7 |
| 20260505235504 | 8 | 20 | 6.4 | 16.1 | 0.00 | 0.91 | 0.00 | 94 | 1008.7 |
| 20260505235003 | 8 | 16 | 6.4 | 16.1 | 0.00 | 0.91 | 0.00 | 94 | 1008.7 |
| 20260505234505 | 8 | 16 | 4.8 | 16.1 | 0.00 | 0.94 | 0.00 | 94 | 1008.7 |
| 20260505234004 | 8 | 23 | 4.8 | 12.9 | 0.00 | 0.97 | 0.00 | 93 | 1008.8 |
| 20260505233508 | 8 | 26 | 4.8 | 14.5 | 0.00 | 0.97 | 0.00 | 93 | 1008.8 |
| 20260505233007 | 8 | 20 | 4.8 | 14.5 | 0.00 | 0.99 | 0.00 | 93 | 1008.9 |
| 20260505232503 | 8 | 19 | 4.8 | 14.5 | 0.00 | 0.99 | 0.00 | 93 | 1008.9 |
| 20260505232003 | 9 | 29 | 4.8 | 16.1 | 0.00 | 0.99 | 0.00 | 93 | 1009.0 |
| 20260505231503 | 9 | 22 | 4.8 | 16.1 | 0.00 | 0.99 | 0.00 | 93 | 1008.9 |
| 20260505231005 | 9 | 20 | 4.8 | 14.5 | 0.00 | 0.99 | 0.00 | 92 | 1009.1 |
| 20260505230505 | 9 | 20 | 4.8 | 14.5 | 0.00 | 0.99 | 0.00 | 92 | 1009.0 |
| 20260505230003 | 9 | 20 | 4.8 | 16.1 | 0.00 | 0.99 | 0.00 | 92 | 1009.1 |
| 20260505225504 | 9 | 18 | 6.4 | 16.1 | 0.00 | 0.99 | 0.00 | 92 | 1009.1 |
| 20260505225003 | 9 | 21 | 6.4 | 16.1 | 0.00 | 0.99 | 0.00 | 92 | 1009.1 |
| 20260505224503 | 9 | 20 | 6.4 | 20.9 | 0.00 | 0.99 | 0.00 | 91 | 1009.1 |
| 20260505224006 | 9 | 9 | 4.8 | 20.9 | 0.00 | 0.99 | 0.00 | 91 | 1009.2 |
| 20260505223505 | 9 | 14 | 6.4 | 24.1 | 0.00 | 1.02 | 0.00 | 91 | 1009.2 |
| 20260505223008 | 9 | 15 | 4.8 | 24.1 | 0.00 | 1.02 | 0.00 | 91 | 1009.2 |
| 20260505222504 | 9 | 18 | 4.8 | 14.5 | 0.00 | 1.04 | 0.00 | 91 | 1009.2 |
| 20260505222005 | 9 | 23 | 8.0 | 17.7 | 0.00 | 1.04 | 0.00 | 90 | 1009.3 |
| 20260505221505 | 10 | 26 | 8.0 | 17.7 | 0.00 | 1.04 | 0.00 | 90 | 1009.4 |
| 20260505221217 | 10 | 25 | 6.4 | 16.1 | 0.00 | 1.04 | 0.00 | 90 | 1009.3 |
| 20260505220508 | 10 | 27 | 4.8 | 22.5 | 0.00 | 1.04 | 0.00 | 89 | 1009.4 |
| 20260505220005 | 10 | 32 | 6.4 | 22.5 | 0.00 | 1.07 | 0.00 | 89 | 1009.4 |
| 20260505215504 | 10 | 33 | 4.8 | 17.7 | 0.00 | 1.09 | 1.07 | 89 | 1009.4 |
| 20260505215003 | 10 | 24 | 6.4 | 19.3 | 0.00 | 1.09 | 1.07 | 89 | 1009.4 |
| 20260505214506 | 10 | 21 | 6.4 | 19.3 | 0.00 | 1.09 | 1.07 | 88 | 1009.3 |
| 20260505214005 | 10 | 17 | 6.4 | 17.7 | 0.00 | 1.09 | 1.07 | 88 | 1009.4 |
| 20260505213504 | 10 | 23 | 8.0 | 19.3 | 0.00 | 1.09 | 1.07 | 88 | 1009.4 |
| 20260505213003 | 10 | 24 | 9.7 | 20.9 | 0.00 | 1.12 | 1.07 | 88 | 1009.4 |
| 20260505212503 | 10 | 19 | 8.0 | 20.9 | 0.00 | 1.12 | 1.07 | 88 | 1009.4 |
| 20260505212007 | 10 | 19 | 6.4 | 17.7 | 0.00 | 1.14 | 1.07 | 89 | 1009.6 |
| 20260505211505 | 10 | 22 | 6.4 | 17.7 | 0.00 | 1.17 | 1.07 | 88 | 1009.5 |
| 20260505211218 | 10 | 23 | 6.4 | 17.7 | 0.00 | 1.17 | 1.07 | 88 | 1009.5 |
| 20260505210503 | 10 | 5 | 6.4 | 17.7 | 0.00 | 1.17 | 1.07 | 88 | 1009.5 |
| 20260505210218 | 10 | 6 | 6.4 | 17.7 | 0.00 | 1.17 | 1.07 | 88 | 1009.6 |
| 20260505205503 | 10 | 25 | 6.4 | 16.1 | 0.00 | 1.19 | 1.07 | 88 | 1009.6 |
| 20260505205005 | 10 | 17 | 6.4 | 17.7 | 0.00 | 1.19 | 1.07 | 88 | 1009.6 |
| 20260505204508 | 10 | 14 | 8.0 | 17.7 | 0.00 | 1.19 | 1.07 | 87 | 1009.5 |
| 20260505204008 | 10 | 19 | 6.4 | 17.7 | 0.00 | 1.22 | 1.07 | 87 | 1009.6 |
| 20260505203717 | 10 | 11 | 6.4 | 20.9 | 0.00 | 1.24 | 1.07 | 87 | 1009.6 |
| 20260505203004 | 10 | 12 | 8.0 | 20.9 | 0.00 | 1.27 | 1.07 | 87 | 1009.6 |
| 20260505202504 | 10 | 22 | 8.0 | 20.9 | 0.00 | 1.27 | 1.07 | 87 | 1009.6 |
| 20260505202004 | 10 | 19 | 6.4 | 20.9 | 0.00 | 1.27 | 1.07 | 87 | 1009.6 |
| 20260505201504 | 11 | 10 | 6.4 | 20.9 | 0.00 | 1.32 | 1.07 | 86 | 1009.6 |
| 20260505201003 | 11 | 15 | 4.8 | 20.9 | 0.00 | 1.37 | 1.07 | 86 | 1009.6 |
| 20260505200506 | 11 | 17 | 6.4 | 17.7 | 0.00 | 1.40 | 1.07 | 86 | 1009.7 |
| 20260505200218 | 11 | 15 | 6.4 | 17.7 | 0.00 | 1.42 | 1.07 | 86 | 1009.6 |
| 20260505195507 | 11 | 14 | 6.4 | 20.9 | 0.00 | 1.45 | 1.07 | 86 | 1009.7 |
| 20260505195005 | 11 | 12 | 6.4 | 20.9 | 0.00 | 1.45 | 1.07 | 86 | 1009.6 |
| 20260505194503 | 11 | 16 | 6.4 | 19.3 | 0.00 | 1.47 | 1.07 | 86 | 1009.6 |
| 20260505194218 | 11 | 16 | 6.4 | 19.3 | 0.00 | 1.47 | 1.07 | 86 | 1009.7 |
| 20260505193503 | 11 | 22 | 4.8 | 19.3 | 0.00 | 1.47 | 1.07 | 86 | 1009.6 |
| 20260505193005 | 11 | 22 | 4.8 | 19.3 | 0.00 | 1.50 | 1.07 | 86 | 1009.6 |
| 20260505192503 | 11 | 23 | 6.4 | 19.3 | 0.00 | 1.50 | 1.07 | 85 | 1009.6 |
| 20260505192010 | 11 | 17 | 4.8 | 14.5 | 0.00 | 1.50 | 1.07 | 85 | 1009.5 |
| 20260505191505 | 11 | 5 | 4.8 | 12.9 | 0.00 | 1.50 | 1.07 | 85 | 1009.5 |
| 20260505191003 | 11 | 1 | 4.8 | 12.9 | 0.00 | 1.50 | 1.07 | 85 | 1009.5 |
| 20260505190719 | 11 | 358 | 6.4 | 16.1 | 0.00 | 1.50 | 1.07 | 85 | 1009.5 |
| 20260505190004 | 11 | 13 | 4.8 | 16.1 | 0.00 | 1.50 | 1.07 | 84 | 1009.3 |
| 20260505185508 | 11 | 22 | 4.8 | 16.1 | 0.00 | 1.50 | 1.07 | 84 | 1009.4 |
| 20260505185003 | 11 | 24 | 6.4 | 14.5 | 0.00 | 1.50 | 1.07 | 84 | 1009.4 |
| 20260505184506 | 11 | 27 | 6.4 | 17.7 | 0.00 | 1.50 | 1.07 | 84 | 1009.4 |
| 20260505184005 | 11 | 20 | 6.4 | 22.5 | 0.00 | 1.50 | 1.07 | 84 | 1009.3 |
| 20260505183504 | 11 | 21 | 6.4 | 22.5 | 0.00 | 1.50 | 1.07 | 84 | 1009.4 |
| 20260505183003 | 11 | 22 | 4.8 | 16.1 | 0.00 | 1.50 | 1.07 | 85 | 1009.3 |
| 20260505182503 | 11 | 16 | 4.8 | 16.1 | 0.00 | 1.50 | 1.07 | 85 | 1009.3 |
| 20260505182007 | 11 | 9 | 4.8 | 16.1 | 0.00 | 1.50 | 1.07 | 85 | 1009.3 |
| 20260505181503 | 11 | 12 | 6.4 | 14.5 | 0.00 | 1.50 | 1.07 | 85 | 1009.3 |
| 20260505181003 | 11 | 9 | 6.4 | 20.9 | 0.00 | 1.50 | 1.07 | 85 | 1009.4 |
| 20260505180503 | 11 | 12 | 4.8 | 20.9 | 0.00 | 1.50 | 1.07 | 85 | 1009.4 |
| 20260505180003 | 11 | 23 | 6.4 | 16.1 | 0.00 | 1.50 | 1.07 | 85 | 1009.4 |
| 20260505175503 | 11 | 19 | 6.4 | 16.1 | 0.00 | 1.50 | 1.07 | 85 | 1009.4 |
| 20260505175221 | 11 | 16 | 6.4 | 16.1 | 0.00 | 1.50 | 1.07 | 86 | 1009.4 |
| 20260505174718 | 11 | 16 | 6.4 | 16.1 | 0.00 | 1.50 | 1.07 | 86 | 1009.4 |
| 20260505174004 | 11 | 24 | 4.8 | 16.1 | 0.00 | 1.50 | 1.07 | 86 | 1009.5 |
| 20260505173503 | 11 | 30 | 6.4 | 16.1 | 0.00 | 1.50 | 1.07 | 86 | 1009.5 |
| 20260505173003 | 11 | 30 | 6.4 | 16.1 | 0.00 | 1.50 | 1.07 | 86 | 1009.5 |
| 20260505172720 | 11 | 23 | 6.4 | 16.1 | 0.00 | 1.50 | 1.07 | 86 | 1009.5 |
| 20260505172004 | 11 | 11 | 6.4 | 17.7 | 0.00 | 1.50 | 1.07 | 86 | 1009.5 |
| 20260505171503 | 11 | 10 | 6.4 | 17.7 | 0.00 | 1.50 | 1.07 | 86 | 1009.4 |
| 20260505171005 | 11 | 11 | 4.8 | 14.5 | 0.00 | 1.50 | 1.07 | 87 | 1009.6 |
| 20260505170506 | 11 | 20 | 6.4 | 14.5 | 0.00 | 1.50 | 1.07 | 87 | 1009.5 |
| 20260505170010 | 11 | 23 | 4.8 | 19.3 | 0.00 | 1.50 | 1.07 | 87 | 1009.5 |
| 20260505165505 | 11 | 8 | 4.8 | 19.3 | 0.00 | 1.50 | 1.07 | 86 | 1009.6 |
| 20260505165008 | 11 | 360 | 4.8 | 14.5 | 0.00 | 1.50 | 1.07 | 86 | 1009.6 |
| 20260505164720 | 11 | 3 | 6.4 | 14.5 | 0.00 | 1.50 | 1.07 | 86 | 1009.6 |
| 20260505164003 | 11 | 18 | 4.8 | 14.5 | 0.00 | 1.50 | 1.07 | 87 | 1009.7 |
| 20260505163508 | 11 | 25 | 4.8 | 14.5 | 0.00 | 1.50 | 1.07 | 86 | 1009.7 |
| 20260505163003 | 11 | 18 | 4.8 | 16.1 | 0.00 | 1.50 | 1.07 | 87 | 1009.7 |
| 20260505162720 | 11 | 18 | 4.8 | 16.1 | 0.00 | 1.50 | 1.07 | 87 | 1009.8 |
| 20260505162004 | 11 | 26 | 6.4 | 17.7 | 0.00 | 1.50 | 1.07 | 87 | 1009.7 |
| 20260505161505 | 11 | 26 | 4.8 | 14.5 | 0.00 | 1.50 | 1.07 | 87 | 1009.7 |
| 20260505161005 | 12 | 25 | 4.8 | 14.5 | 0.00 | 1.50 | 1.07 | 87 | 1009.8 |
| 20260505160505 | 12 | 28 | 4.8 | 11.3 | 0.00 | 1.50 | 1.07 | 87 | 1009.8 |
| 20260505153218 | 12 | 26 | 4.8 | 19.3 | 0.00 | 1.50 | 1.07 | 86 | 1010.0 |
| 20260505152721 | 12 | 16 | 4.8 | 19.3 | 0.00 | 1.50 | 1.07 | 86 | 1010.0 |
| 20260505152003 | 12 | 23 | 4.8 | 14.5 | 0.00 | 1.50 | 1.07 | 86 | 1010.0 |
| 20260505151503 | 12 | 27 | 6.4 | 14.5 | 0.00 | 1.50 | 1.07 | 86 | 1010.0 |
| 20260505151218 | 12 | 30 | 4.8 | 14.5 | 0.00 | 1.50 | 1.07 | 86 | 1010.1 |
| 20260505150503 | 12 | 20 | 6.4 | 17.7 | 0.00 | 1.50 | 1.07 | 86 | 1010.0 |
| 20260505140503 | 12 | 45 | 4.8 | 12.9 | 0.00 | 1.50 | 1.07 | 86 | 1010.3 |
| 20260505130219 | 11 | 35 | 4.8 | 14.5 | 0.00 | 1.50 | 1.07 | 87 | 1010.6 |
| 20260505124503 | 11 | 40 | 3.2 | 6.4 | 0.00 | 1.50 | 1.07 | 89 | 1010.8 |
| 20260505124003 | 11 | 46 | 3.2 | 9.7 | 0.00 | 1.50 | 1.07 | 88 | 1010.7 |
| 20260505123718 | 11 | 43 | 3.2 | 9.7 | 0.00 | 1.50 | 1.07 | 88 | 1010.8 |
| 20260505123005 | 11 | 44 | 3.2 | 9.7 | 0.00 | 1.50 | 1.07 | 89 | 1010.8 |
| 20260505122506 | 11 | 51 | 4.8 | 12.9 | 0.00 | 1.50 | 1.07 | 88 | 1011.0 |
| 20260505122005 | 11 | 52 | 4.8 | 14.5 | 0.00 | 1.50 | 1.07 | 88 | 1011.0 |
| 20260505121504 | 11 | 57 | 3.2 | 14.5 | 0.00 | 1.50 | 1.07 | 88 | 1011.0 |
| 20260505121003 | 11 | 45 | 3.2 | 11.3 | 0.00 | 1.50 | 1.07 | 89 | 1011.0 |
| 20260505120504 | 11 | 45 | 4.8 | 19.3 | 0.00 | 1.50 | 1.07 | 89 | 1011.0 |
| 20260505120005 | 11 | 45 | 4.8 | 19.3 | 0.00 | 1.50 | 1.07 | 89 | 1011.0 |
| 20260505115505 | 11 | 32 | 4.8 | 19.3 | 0.00 | 1.50 | 1.07 | 90 | 1011.0 |
| 20260505115003 | 11 | 24 | 3.2 | 19.3 | 0.00 | 1.50 | 1.07 | 91 | 1011.0 |
| 20260505114504 | 11 | 39 | 4.8 | 11.3 | 0.00 | 1.50 | 1.07 | 91 | 1011.1 |
| 20260505114003 | 11 | 51 | 3.2 | 11.3 | 0.00 | 1.50 | 1.07 | 91 | 1011.0 |
| 20260505113718 | 11 | 48 | 3.2 | 11.3 | 0.00 | 1.50 | 1.07 | 91 | 1011.0 |
| 20260505113003 | 11 | 42 | 3.2 | 14.5 | 0.00 | 1.50 | 1.07 | 92 | 1011.0 |
| 20260505112503 | 11 | 44 | 4.8 | 14.5 | 0.00 | 1.50 | 1.07 | 92 | 1011.1 |
| 20260505112007 | 11 | 53 | 4.8 | 14.5 | 0.00 | 1.50 | 1.07 | 92 | 1011.2 |
| 20260505111503 | 11 | 55 | 4.8 | 12.9 | 0.00 | 1.50 | 1.07 | 93 | 1011.2 |
| 20260505111004 | 10 | 48 | 4.8 | 16.1 | 0.00 | 1.50 | 1.07 | 93 | 1011.1 |
| 20260505110504 | 10 | 49 | 4.8 | 16.1 | 0.00 | 1.50 | 1.07 | 93 | 1011.2 |